GPS BIII-4 (PRN 14)

Last updated on Sat Nov 15 2025 00:03:18 GMT+0000 (Coordinated Universal Time)

1 46826U 20078A 25316.12603230 -.00000034 00000+0 00000+0 0 9993 2 46826 54.0224 219.5836 0063912 203.4991 326.7749 2.00567032 37157
UTC large
Height (km)
Speed (km/s)
/
Latitude / Longitude
Inclination (degrees)
Orbital Period (minutes)
Azimuth
Elevation
Range (km)
Doppler Factor

Next 0 passes for location: London (51.5072 / 0.1276)

Sorry there are no passes over London.